Location: T. Spence Memorial Observatory
(32.7356°N, 82.2098°W)
Time: 03:01:59
(UTC-04:00)

Cosmos 2219 - Visible Passes

Search period start: 03 September 2014 00:00
Search period end: 13 September 2014 00:00
Orbit: 835 x 860 km, 71.1° (Epoch: 02 September)

Date Brightness Start Highest point End Pass type
(mag) Time Alt. Az. Time Alt. Az. Time Alt. Az.
03 Sep 5.8 23:10:40 10° NNE 23:10:47 10° NNE 23:10:47 10° NNE visible
04 Sep 5.7 22:57:23 10° NNE 22:57:39 11° NNE 22:57:39 11° NNE visible
05 Sep 5.7 22:44:07 10° NNE 22:44:32 11° NNE 22:44:32 11° NNE visible
06 Sep 5.6 22:30:50 10° NNE 22:31:27 12° NNE 22:31:27 12° NNE visible
07 Sep 5.5 22:17:34 10° NNE 22:18:24 12° NNE 22:18:24 12° NNE visible
08 Sep 6.1 00:00:06 10° NNW 00:00:20 11° NNW 00:00:20 11° NNW visible
08 Sep 5.4 22:04:18 10° NNE 22:05:23 13° NNE 22:05:23 13° NNE visible
08 Sep 5.9 23:46:46 10° NNW 23:47:19 13° NNW 23:47:19 13° NNW visible
09 Sep 5.3 21:51:02 10° NNE 21:52:24 14° NNE 21:52:24 14° NNE visible
09 Sep 5.8 23:33:25 10° NNW 23:34:20 15° NNW 23:34:20 15° NNW visible
10 Sep 5.2 21:37:46 10° NNE 21:39:27 14° NE 21:39:27 14° NE visible
10 Sep 5.6 23:20:05 10° NNW 23:21:23 17° NNW 23:21:23 17° NNW visible
11 Sep 5.1 21:24:30 10° NNE 21:26:32 14° NE 21:26:32 14° NE visible
11 Sep 5.4 23:06:44 10° NNW 23:08:28 21° NNW 23:08:28 21° NNW visible
12 Sep 5.0 21:11:15 10° NNE 21:13:40 15° NE 21:13:40 15° NE visible
12 Sep 5.1 22:53:24 10° NNW 22:55:37 25° NNW 22:55:37 25° NNW visible
